Regional Weather Roundup
Issued by NWS Goodland, KS

Home | Current Version | Previous Version | Graphics & Text | Print | Product List | Glossary On
Versions: 1 2 3 4 5 6 7 8 9 10 11 12 13 14 15 16 17 18 19 20 21 22 23 24 25 26 27 28 29 30 31 32 33 34 35 36 37 38 39 40 41 42 43 44 45 46 47 48 49 50
000
ASUS43 KGLD 230708
RWRGLD

GOODLAND FORECAST AREA HOURLY WEATHER ROUNDUP
NATIONAL WEATHER SERVICE GOODLAND KS
100 AM MDT SUN APR 23 2017

...OFFICIAL OBSERVATIONS...

CITY           SKY/WX    TMP DP  RH WIND       PRES   REMARKS
GOODLAND KS    CLEAR     42  31  64 SW13      30.22F
HILL CITY KS   CLEAR     39  32  76 W5        30.24F
IMPERIAL NEB   CLEAR     42  32  67 S10       30.19F
MCCOOK NEB     CLEAR     38  30  73 SW7       30.20F
AKRON CO       CLEAR     40  30  67 S13       30.17F
BURLINGTON CO  NOT AVBL
LIMON CO       CLEAR     37  34  89 S9        30.21F
$$

...UNOFFICIAL OBSERVATIONS...

CITY           SKY/WX    TMP DP  RH WIND       PRES   REMARKS
LENORA KS        N/A     43  32  65 MISG        N/A
NORTON KS      CLEAR     37  27  65 SW9       30.21F
SHARON SPRINGS   N/A     36  31  83 S8          N/A
TRENTON NEB      N/A     38  32  79 CALM        N/A
KIT CARSON CO    N/A     35  31  84 CALM        N/A
$$




USA.gov is the U.S. government's official web portal to all federal, state and local government web resources and services.